TimeEDT,TemperatureF,Dew PointF,Humidity,Sea Level PressureIn,VisibilityMPH,Wind Direction,Wind SpeedMPH,Gust SpeedMPH,PrecipitationIn,Events,Conditions,WindDirDegrees,DateUTC
12:53 AM,48.9,44.1,83,30.10,10.0,NNW,4.6,-,0.00,,Overcast,330,2012-10-08 04:53:00
1:53 AM,48.0,43.0,83,30.11,10.0,NW,4.6,-,N/A,,Clear,320,2012-10-08 05:53:00
2:53 AM,48.0,43.0,83,30.10,10.0,NNW,3.5,-,N/A,,Clear,330,2012-10-08 06:53:00
3:53 AM,44.1,42.1,93,30.12,10.0,North,3.5,-,N/A,,Clear,350,2012-10-08 07:53:00
4:53 AM,45.0,41.0,86,30.14,10.0,North,3.5,-,N/A,,Clear,360,2012-10-08 08:53:00
5:53 AM,43.0,41.0,93,30.15,10.0,Calm,Calm,-,N/A,,Clear,0,2012-10-08 09:53:00
6:53 AM,42.1,39.9,92,30.18,10.0,Calm,Calm,-,N/A,,Clear,0,2012-10-08 10:53:00
7:03 AM,42.8,39.2,87,30.18,2.5,Calm,Calm,-,N/A,,Partly Cloudy,0,2012-10-08 11:03:00
7:11 AM,41.0,39.2,93,30.19,10.0,Calm,Calm,-,N/A,,Partly Cloudy,0,2012-10-08 11:11:00
7:53 AM,44.1,42.1,93,30.22,10.0,Calm,Calm,-,N/A,,Partly Cloudy,0,2012-10-08 11:53:00
8:53 AM,50.0,42.1,74,30.24,10.0,North,5.8,-,N/A,,Scattered Clouds,360,2012-10-08 12:53:00
9:53 AM,54.0,43.0,66,30.26,10.0,NNW,5.8,-,N/A,,Scattered Clouds,340,2012-10-08 13:53:00
10:53 AM,54.0,42.1,64,30.26,10.0,North,8.1,-,N/A,,Mostly Cloudy,10,2012-10-08 14:53:00
11:53 AM,55.9,42.1,60,30.25,10.0,Variable,3.5,-,N/A,,Overcast,0,2012-10-08 15:53:00
12:53 PM,55.9,41.0,57,30.25,10.0,Calm,Calm,-,N/A,,Overcast,0,2012-10-08 16:53:00
1:53 PM,55.9,41.0,57,30.26,10.0,Calm,Calm,-,N/A,,Overcast,0,2012-10-08 17:53:00
2:53 PM,55.9,42.1,60,30.26,10.0,ESE,3.5,-,N/A,,Overcast,110,2012-10-08 18:53:00
3:53 PM,55.9,42.1,60,30.24,10.0,Calm,Calm,-,N/A,,Overcast,0,2012-10-08 19:53:00
4:53 PM,55.9,42.1,60,30.26,10.0,Calm,Calm,-,N/A,,Mostly Cloudy,0,2012-10-08 20:53:00
5:53 PM,55.0,41.0,59,30.28,10.0,Calm,Calm,-,N/A,,Mostly Cloudy,0,2012-10-08 21:53:00
6:53 PM,54.0,45.0,72,30.29,10.0,Calm,Calm,-,N/A,,Overcast,0,2012-10-08 22:53:00
7:53 PM,53.1,46.0,77,30.27,10.0,Calm,Calm,-,N/A,,Mostly Cloudy,0,2012-10-08 23:53:00
8:53 PM,52.0,44.1,74,30.27,10.0,NE,3.5,-,N/A,,Partly Cloudy,50,2012-10-09 00:53:00
9:53 PM,51.1,44.1,77,30.28,10.0,NE,4.6,-,N/A,,Clear,40,2012-10-09 01:53:00
10:53 PM,50.0,45.0,83,30.27,10.0,North,6.9,-,N/A,,Clear,10,2012-10-09 02:53:00
11:53 PM,50.0,45.0,83,30.25,10.0,North,6.9,-,N/A,,Partly Cloudy,10,2012-10-09 03:53:00